weather.gov     
National Weather Service

Regional Weather Roundup
NWS Homepage
This page is being discontinued on March 12, 2014.
The same data is available at this site. Please update your bookmarks.
Thank you, and we apologize for the inconvenience.
Please send an email to SR-SRH.Webmaster@noaa.gov with any concerns.


Current Version
Previous Version:    01  02  03  04  05  06  07  08  09  10  11  12  13  14  15  16  17  18  19  20  21  22  23  24  25  26  27  28  29  30  
   31  32  33  34  35  36  37  38  39  40  41  42  43  44  45  46  47  48  49  50  51  52  53  54  55  56  57  58  59  60  
[Printable]
120
ASUS43 KBIS 201120
RWRBIS

NWR BROADCAST TEXT
NATIONAL WEATHER SERVICE BISMARCK ND
600 AM CDT MON OCT 20 2014

NOTE: "FAIR" INDICATES FEW OR NO CLOUDS BELOW 12,000 FEET WITH NO
SIGNIFICANT WEATHER AND/OR OBSTRUCTIONS TO VISIBILITY.


CITY           SKY/WX    TMP DP  RH WIND       PRES   REMARKS
WILLISTON      CLEAR     38  33  82 CALM      29.98F
MINOT          CLEAR     44  34  67 SW9       30.00S
MINOT AFB      CLEAR     42  36  77 SW7       30.00R
BISMARCK       MOCLDY    32  31  96 CALM      30.06S
DICKINSON      CLEAR     38  33  82 S8        30.01S
GARRISON         N/A     33  30  88 CALM      30.02S
HETTINGER ARPT CLEAR     38  32  79 SE5       30.06S
JAMESTOWN      CLEAR     38  35  89 W3        30.04R
BEACH            N/A     45  37  76 S12       30.00F
CARRINGTON     FAIR      37  37 100 W5        30.05S
CROSBY         FAIR      41  39  93 S10       29.97F
HARVEY         FAIR      36  32  87 W6        30.03S
HAZEN          FAIR      28  27  93 CALM      30.04S
LINTON         FAIR      28  28 100 E8        30.06S
MANDAN         FAIR      37  34  87 SW3       30.06R
OAKES            N/A     41  37  87 NW7       30.04S
RUGBY          FAIR      32  32 100 SW6       30.03R
STANLEY        FAIR      36  36 100 CALM      30.01S
TIOGA          FAIR      32  32 100 E5        30.02F
$$

CITY           SKY/WX    TMP DP  RH WIND       PRES   REMARKS
GRAND FORKS    CLEAR     36  35  96 NW3       30.02R
GRAND FORKS AF CLEAR     36  36  99 NW5       30.03R
DEVILS LAKE    CLEAR     37  30  75 CALM      30.02S
FARGO          CLEAR     39  34  82 N8        30.01R
CANDO          FAIR      34  32  93 NE3       30.04S
CAVALIER       FAIR      37  36  93 NW5       30.04R
GRAFTON        FAIR      37  37 100 NW8       30.04R
GWINNER        SUNNY     45  36  70 W8        30.04R
LANGDON        FAIR      32  28  86 N5        30.03S
ROLLA          FAIR      32  32 100 CALM      30.04S
WALHALLA       FAIR      32  32 100 W5        30.05R
$$

CITY           SKY/WX    TMP DP  RH WIND       PRES   REMARKS
ABERDEEN       CLEAR     32  29  88 CALM      30.05R
MOBRIDGE       MOCLDY    35  33  92 CALM      30.04S
BUFFALO          N/A     45  35  68 SE6       29.97F
RAPID CITY     CLEAR     43  36  76 CALM      30.06F
GLASGOW        CLEAR     42  35  76 E14       29.88F
SIDNEY         CLEAR     37  36  93 CALM      29.98F
WOLF POINT     CLEAR     36  33  89 NE5       29.93S
GLENDIVE       CLEAR     39  34  81 CALM      29.97F
MILES CITY     CLEAR     51  37  58 SE13      29.93F
BAKER          CLEAR     42  34  73 E9        30.00F
$$

CITY           SKY/WX    TMP DP  RH WIND       PRES   REMARKS
BILLINGS       CLEAR     45  32  60 SW10      29.95R
GREAT FALLS    CLEAR     53  29  39 S13       29.86S
REGINA         CLEAR     39  36  87 SE13      29.90F
ESTEVAN        CLEAR     39  36  87 S7        29.97S
$$





U.S. Dept. of Commerce
NOAA National Weather Service
1325 East West Highway
Silver Spring, MD 20910
E-mail: w-nws.webmaster@noaa.gov
Page last modified: May 16, 2007
NATIONAL WEATHER SERVICE: for Safety, for Work, for Fun - FOR LIFE